DateTimeUTC,F1_A11,F1_S11,BsB_S11,BsG_S11,BsR_S11,BbsB_S11,BbsG_S11,BbsR_S11,BaB_A11,BaG_A11,BaR_A11,Tu_S11,T_S11,Uu_S11,U_S11,P_S11,T1_A11
2021-08-18T04:00:00Z,00000200,20000000,,,,,,,-000.01,0000.14,0000.07,18.7,25.4,06.6,04.4,0677.8,31.0
2021-08-18T04:01:00Z,00000200,20000000,,,,,,,-000.20,-000.14,-000.43,18.7,25.4,06.6,04.4,0677.8,31.0
2021-08-18T04:02:00Z,00000200,20000000,,,,,,,-000.03,-000.07,0000.10,18.7,25.5,06.5,04.3,0677.8,31.0
2021-08-18T04:03:00Z,00000200,60000000,,,,,,,0000.35,0000.35,0000.29,18.7,25.5,06.5,04.3,0677.8,31.0
2021-08-18T04:04:00Z,00000200,40000000,0000.84,0001.23,0000.78,0000.22,0000.21,0000.11,0000.15,0000.23,0000.03,18.8,25.3,06.2,04.2,0678.8,30.9
2021-08-18T04:05:00Z,00000200,00000000,0001.38,0001.27,0001.08,0000.64,0000.36,0000.11,-000.00,-000.38,0000.06,18.9,25.2,06.2,04.2,0678.9,31.0
2021-08-18T04:06:00Z,00000200,00000000,0000.99,0001.21,0000.97,0000.84,0000.71,0000.04,0000.23,0000.26,-000.28,18.9,25.2,06.2,04.2,0678.9,31.0
2021-08-18T04:07:00Z,00000200,00000000,0000.86,0001.42,0001.14,-000.27,0000.35,0000.30,0000.07,0000.46,0000.65,18.9,25.2,06.1,04.1,0678.8,31.0
2021-08-18T04:08:00Z,00000200,00000000,0001.96,0000.76,0001.12,0000.32,0000.22,0000.22,0001.23,0000.98,0000.53,18.9,25.2,06.0,04.1,0678.8,31.0
2021-08-18T04:09:00Z,00000200,00000000,0001.68,0000.95,0000.98,0000.40,0000.55,0000.28,0000.24,0000.38,0000.14,18.9,25.2,05.8,04.0,0678.8,31.0
2021-08-18T04:10:00Z,00000200,00000000,0001.20,0001.35,0000.67,0000.02,0000.09,-000.36,0000.14,-000.44,0000.04,18.9,25.2,05.8,03.9,0678.8,31.0
2021-08-18T04:11:00Z,00000200,00000000,0001.32,0001.43,0000.63,0000.14,0000.02,0000.10,-000.22,0000.09,0000.01,18.9,25.2,05.7,03.9,0678.8,31.0
2021-08-18T04:12:00Z,00000200,00000000,0001.07,0001.15,0000.86,0000.29,0000.41,0000.18,0000.53,0000.65,0000.08,18.8,25.2,05.7,03.8,0678.8,31.0
2021-08-18T04:13:00Z,00000200,00000000,0001.13,0001.34,0000.88,0000.07,0000.04,0000.28,0000.37,0000.27,0000.50,18.8,25.2,05.7,03.8,0678.8,31.0
2021-08-18T04:14:00Z,00000200,00000000,0001.40,0001.12,0001.11,0000.09,0000.25,0000.11,0000.37,0000.06,0000.08,18.8,25.1,05.6,03.8,0678.8,31.0
2021-08-18T04:15:00Z,00000200,00000000,0000.85,0001.07,0000.42,-000.28,0000.27,0000.03,0000.33,0000.18,0000.39,18.8,25.1,05.5,03.7,0678.8,31.0
2021-08-18T04:16:00Z,00000200,00000000,0001.07,0001.39,0000.64,-000.20,-000.14,0000.04,0000.38,0000.44,0000.17,18.8,25.2,05.4,03.7,0678.8,31.0
2021-08-18T04:17:00Z,00000200,00000000,0001.00,0001.15,0000.94,0000.33,0000.06,0000.36,-000.01,0000.04,-000.25,18.8,25.2,05.4,03.7,0678.8,31.0
2021-08-18T04:18:00Z,00000200,00000000,0000.59,0000.98,0001.15,0000.62,0000.67,0000.25,0000.40,0000.33,0000.55,18.8,25.1,05.3,03.6,0678.7,31.0
2021-08-18T04:19:00Z,00000200,00000000,0001.01,0001.22,0000.88,0000.05,0000.48,0000.05,0000.01,0000.14,0000.19,18.8,25.1,05.3,03.6,0678.7,31.0
2021-08-18T04:20:00Z,00000200,00000000,0001.13,0001.03,0000.76,0000.17,0000.30,-000.03,0000.22,0000.28,0000.20,18.8,25.2,05.2,03.5,0678.7,31.0
2021-08-18T04:21:00Z,00000200,00000000,0001.71,0001.07,0000.88,-000.59,0000.31,0000.32,0000.37,-000.10,-000.02,18.8,25.1,05.1,03.4,0678.8,31.0
2021-08-18T04:22:00Z,00000200,00000000,0001.72,0001.36,0000.92,-000.38,0000.22,-000.03,0000.19,0000.47,0000.21,18.8,25.1,05.1,03.5,0678.8,31.0
2021-08-18T04:23:00Z,00000200,00000000,0001.06,0001.27,0000.81,0000.52,0000.14,0000.14,0000.08,0000.02,0000.11,18.8,25.1,05.0,03.4,0678.8,31.0
2021-08-18T04:24:00Z,00000200,00000000,0001.27,0001.29,0000.62,-000.09,0000.13,0000.17,0000.07,0000.20,0000.18,18.8,25.1,05.0,03.4,0678.8,31.0
2021-08-18T04:25:00Z,00000200,00000000,0000.90,0000.79,0000.67,-000.43,0000.42,0000.05,0000.32,-000.18,-000.22,18.8,25.1,04.8,03.3,0678.8,31.0
2021-08-18T04:26:00Z,00000200,00000000,0000.90,0001.00,0000.67,0000.24,-000.14,0000.22,0000.15,0000.57,0000.39,18.8,25.1,04.8,03.2,0678.8,30.9
2021-08-18T04:27:00Z,00000200,00000000,0000.69,0001.08,0000.55,-000.03,0000.09,-000.11,0000.05,-000.13,0000.04,18.8,25.1,04.7,03.2,0678.8,31.0
2021-08-18T04:28:00Z,00000200,00000000,0001.53,0001.04,0000.75,0000.44,0000.04,-000.04,-002.14,-001.92,-001.78,18.7,25.1,04.6,03.2,0678.8,31.0
2021-08-18T04:29:00Z,00000200,00000000,0001.44,0001.10,0000.82,0000.29,0000.13,0000.03,-001.58,-001.87,-001.73,18.8,25.1,04.6,03.1,0678.8,31.0
2021-08-18T04:30:00Z,00000200,00000000,0001.17,0001.17,0000.76,0000.38,0000.31,0000.10,0000.13,0000.31,-000.37,18.8,25.1,04.5,03.1,0678.8,30.9
2021-08-18T04:31:00Z,00000200,00000000,0000.85,0000.98,0001.00,0000.39,0000.34,0000.33,-000.07,-000.28,0000.47,18.7,25.1,04.6,03.1,0678.8,31.0
2021-08-18T04:32:00Z,00000200,00000000,0001.11,0000.81,0000.55,0000.43,0000.33,0000.01,-003.68,-003.42,-003.51,18.7,25.1,04.5,03.1,0678.8,30.9
2021-08-18T04:33:00Z,00000200,00000000,0000.93,0000.82,0000.71,0000.50,0000.30,0000.10,-001.75,-001.26,-001.40,18.7,25.1,04.5,03.0,0678.8,31.0
2021-08-18T04:34:00Z,00000200,00000000,0001.04,0000.90,0000.55,0000.89,0000.11,-000.04,0000.11,-000.16,-000.07,18.7,25.1,04.4,03.0,0678.8,30.9
2021-08-18T04:35:00Z,00000200,00000000,0000.87,0000.97,0000.92,-000.10,0000.24,0000.10,0000.48,0000.49,0000.43,18.7,25.1,04.4,03.0,0678.8,31.0
2021-08-18T04:36:00Z,00000200,00000000,0001.18,0001.43,0000.55,-000.13,0000.07,-000.20,-000.13,-000.43,-000.21,18.7,25.0,04.4,03.0,0678.8,31.0
2021-08-18T04:37:00Z,00000200,00000000,0000.88,0000.94,0000.71,0000.02,0000.11,-000.02,0000.25,0000.51,0000.08,18.7,25.1,04.4,03.0,0678.8,31.0
2021-08-18T04:38:00Z,00000200,00000000,0001.79,0000.87,0000.84,-000.08,0000.50,0000.02,0000.51,0000.22,0000.44,18.7,25.1,04.3,02.9,0678.8,31.0
2021-08-18T04:39:00Z,00000200,00000000,0000.79,0001.07,0000.74,-000.16,0000.24,0000.46,-000.01,0000.30,0000.09,18.7,25.0,04.3,02.9,0678.8,30.9
2021-08-18T04:40:00Z,00000200,00000000,0001.52,0001.00,0000.53,0000.25,0000.27,-000.15,0000.32,-000.15,0000.07,18.7,25.1,04.2,02.9,0678.9,30.9
2021-08-18T04:41:00Z,00000200,00000000,0000.82,0001.35,0000.77,0000.24,0000.23,0000.05,0000.02,0000.34,0000.26,18.7,25.1,04.2,02.8,0678.9,31.0
2021-08-18T04:42:00Z,00000200,00000000,0001.31,0001.29,0000.87,0000.08,0000.08,0000.13,0000.39,0000.07,-000.01,18.7,25.0,04.2,02.8,0678.9,30.9
2021-08-18T04:43:00Z,00000200,00000000,0001.42,0001.04,0000.48,0000.86,-000.06,0000.17,-000.00,0000.40,0000.21,18.7,25.0,04.1,02.7,0678.9,30.9
2021-08-18T04:44:00Z,00000200,00000000,0000.92,0000.76,0000.51,0000.17,0000.06,0000.05,0000.41,0000.06,-000.18,18.7,25.0,04.0,02.7,0678.9,30.9
2021-08-18T04:45:00Z,00000200,00000000,0000.80,0000.94,0000.80,-000.08,0000.06,0000.12,0000.62,0000.22,0000.67,18.7,25.0,04.1,02.8,0678.9,31.0
2021-08-18T04:46:00Z,00000200,00000000,0000.92,0000.98,0000.28,-000.05,0000.13,-000.05,-000.15,0000.24,-000.13,18.7,25.0,04.1,02.8,0678.9,31.0
2021-08-18T04:47:00Z,00000200,00000000,0000.26,0001.09,0000.69,0000.42,-000.24,0000.18,-000.01,-000.02,0000.27,18.7,25.0,04.1,02.8,0678.9,31.0
2021-08-18T04:48:00Z,00000200,00000000,0000.52,0000.80,0000.64,0000.16,-000.01,-000.19,0000.18,0000.42,0000.09,18.7,25.0,03.9,02.7,0678.9,30.9
2021-08-18T04:49:00Z,00000200,00000000,0000.41,0000.74,0000.84,0000.10,0000.13,0000.13,0000.37,0000.15,0000.21,18.6,25.0,04.0,02.7,0678.9,30.9
2021-08-18T04:50:00Z,00000200,00000000,0000.54,0000.95,0000.88,0000.54,0000.28,0000.26,0000.17,0000.05,-000.06,18.6,25.0,03.9,02.7,0678.9,30.9
2021-08-18T04:51:00Z,00000200,00000000,0000.54,0000.37,0000.40,-000.26,0000.07,-000.14,0003.52,0003.34,0003.31,18.6,25.0,03.9,02.7,0678.9,30.9
2021-08-18T04:52:00Z,00000200,00000000,0001.45,0000.89,0000.50,-000.46,0000.03,0000.07,0000.07,0000.28,-000.19,18.6,25.0,03.8,02.6,0678.9,30.9
2021-08-18T04:53:00Z,00000200,00000000,0000.47,0000.64,0000.49,0000.11,0000.38,0000.17,0000.10,0000.05,0000.21,18.6,25.0,03.8,02.6,0678.9,30.9
2021-08-18T04:54:00Z,00000200,00000000,0000.89,0001.07,0000.49,0000.24,0000.04,0000.06,0000.25,-000.05,0000.16,18.6,25.0,03.8,02.5,0678.9,31.0
2021-08-18T04:55:00Z,00000200,00000000,0001.05,0000.65,0000.61,0000.30,-000.15,0000.08,0000.16,0000.18,0000.06,18.6,25.0,03.8,02.6,0678.9,30.9
2021-08-18T04:56:00Z,00000200,00000000,0000.06,0000.79,0000.61,0000.13,0000.25,0000.08,0000.31,0000.28,0000.19,18.6,25.0,03.7,02.5,0678.9,31.0
2021-08-18T04:57:00Z,00000200,40000000,,,,,,,0000.92,0000.96,0000.50,18.6,25.0,03.1,02.1,0678.8,30.9
2021-08-18T04:58:00Z,00000200,60000000,,,,,,,-000.56,-000.28,-000.11,18.3,25.1,04.1,02.7,0677.9,30.9
2021-08-18T04:59:00Z,00000200,20000000,,,,,,,-000.18,-000.24,-000.14,18.3,25.2,04.0,02.6,0677.9,30.9
